Погода Большая Мурта

Погода Большая Мурта : погода сейчас, прогноз погоды и архив. Всё, что Вы хотите узнать о погоде Большая Мурта!

Хотите узнать прогноз погоды Большая Мурта? Тогда Вам сюда: Погода Большая Мурта

Поиск расширенной информации на нашем сайте:

Другие новости

Новости СМИ2

Главная страница сайта

Новости сайта

03.07.2017

Напоминаем, что на нашем специализированном сайте Метеоцентр.Азия вы можете получить высокодетализированные автоматические прогнозы погоды по пунктам России, СНГ и мира в авиационном формате (включающие направление и скорость ветра, видимость, явления погоды, количество и форму облачности, нижнюю и верхнюю границу облачности).

Рекомендуем: промокод связной сентябрь 2015

Погода Большая Мурта - сегодня

Время (UTC), дата Ветер
(°,м/с) 
Видим.   Явления Облачность Т
(°С)
Тd
(°С)
f(%) Тe
(°С)
Pmin
(гПа)
dP
(гПа)
Po
(мм)
O2
(г/м3)
Тmin Tmax R s Состояние
почвы
00 18.09.17 080 (В) 10 км  {ливн. осадки}  10/10 600 м кучево-дожд. 
[Cb cap]
+5.5 +5.5 100 +5  1009.2  -2.8  740  292  +5      влажная 
03 18.09.17 060 (СВ) 10 км  в посл. час ливневой дождь  10/10 600 м кучево-дожд. 
[Cb cap]
+6.4 +6.4 100 +7  1007.4  -1.8  739  290           
06 18.09.17 050 (СВ) 2000 м  ливневой дождь  10/10 300 м кучево-дожд. 
[Cb cap]
+8.8 +8.8 100 +9  1005.5  -1.6  738  286           
09 18.09.17 230 (ЮЗ) 20000 м  {ливн. осадки}  10/10 300 м кучево-дожд. 
[Cb cap]
+15.9 +15.9 100 +28  1005.3  0.4  738  278           
12 18.09.17 280 (З) 20000 м  {ливн. осадки}  8/3 600 м кучево-дожд., верхняя 
[Cb cap|Ci fib]
+14.1 +13.6 97 +22  1006.6  1.1  739  280    +16     
15 18.09.17 180 (Ю) 2000 м  дымка  ясно 
+8.2 +8.2 100 +9  1008.6  1.5  740  288           
18 18.09.17 тихо ()   0500 м  туман  ясно 
+5.8 +5.8 100 +6  1009.2  0.3  740  291           
21 18.09.17 тихо ()   0050 м  туман  ясно 
+5.7 +5.7 100 +6  1007.7  -1.4  739  291           
00 19.09.17 тихо ()   0050 м  туман  ясно 
+7.3 +7.3 100 +7  1006.1  -1.5  738  288  +5        влажная 
03 19.09.17 300 (СЗ) 0050 м  туман  ясно 
+7.4 +7.4 100 +7  1006.4  0.3  738  288           
06 19.09.17 170 (Ю) 10 км  {туман}  9/5 600 м кучево-дожд., средняя 
[Cb cap|Ac As]
+12.2 +12.2 100 +18  1006.8  0.8  739  283           
09 19.09.17 140 (ЮВ) 4000 м  слаб. ливневой дождь  10/10 600 м кучево-дожд. 
[Cb cap]
+12.7 +12.7 100 +19  1007.6  0.9  740  282           
12 19.09.17 170 (Ю) 20000 м  {ливн. осадки}  10/10 600 м кучево-дожд. 
[Cb cap]
+11.5 +11.5 100 +16  1008.3  0.6  740  284    +14.4     
15 19.09.17 190 (Ю) 10 км    10/10 600 м кучево-дожд. 
[Cb cap]
+9.7 +9.7 100 +12  1009.1  0.5  741  286           
18 19.09.17 240 (ЮЗ) 10 км    10/10 600 м кучево-дожд. 
[Cb cap]
+9.2 +9.2 100 +10  1009.2  0.1  741  287           
21 19.09.17 280 (З) 4000 м  слаб. ливневой дождь  10/10 600 м кучево-дожд. 
[Cb cap]
+9.2 +9.2 100 +10  1009.4  0.2  741  287           
00 20.09.17 250 (З) 10 км  {ливн. осадки}  10/10 600 м кучево-дожд. 
[Cb cap]
+9.3 +9.3 100 +9  1010.4  742  287  +8.7    0.0    влажная 
03 20.09.17 280 (З) 4000 м  слаб. ливневой дождь  10/10 600 м кучево-дожд. 
[Cb cap]
+10 +10 100 +11  1011.8  1.4  743  287           
06 20.09.17 270 (З) 10 км  {ливн. осадки}  10/10 600 м кучево-дожд. 
[Cb cap]
+11.2 +11.2 100 +14  1012.9  1.3  744  286           
09 20.09.17 300 (СЗ) 4000 м  слаб. ливневой дождь  10/10 600 м кучево-дожд. 
[Cb cap]
+11.2 +11.2 100 +14  1014.2  1.2  744  286           
12 20.09.17 270 (З) 20000 м  {ливн. осадки}  10/10 600 м кучево-дожд. 
[Cb cap]
+9.2 +9.2 100 +10  1016  1.6  746  289    +12.2     
15 20.09.17 260 (З) 4000 м  слаб. ливневой дождь  10/10 600 м кучево-дожд. 
[Cb cap]
+8.7 +8.7 100 +10  1017.1  1.1  746  290           
18 20.09.17 тихо ()   20000 м  {ливн. осадки}  10/10 600 м кучево-дожд. 
[Cb cap]
+7.9 +7.9 100 +8  1016.6  -0.6  746  291           
21 20.09.17 160 (Ю) 20000 м    6/6 600 м кучево-дожд. 
[Cb cap]
+7.9 +7.9 100 +9  1016.1  -0.5  746  291           
00 21.09.17 090 (В) 4000 м  дымка  10/10 600 м кучево-дожд. 
[Cb cap]
+8.1 +8.1 100 +9  1015.1  -1  745  290  +7.3      влажная 
Время (UTC), дата Ветер
(°,м/с) 
Видим.   Явления Облачность Т
(°С)
Тd
(°С)
f(%) Тe
(°С)
Pmin
(гПа)
dP
(гПа)
Po
(мм)
O2
(г/м3)
Тmin Tmax R s Состояние
почвы

Для получения пояснительной информации подведите курсор к названию столбца.

ПОГОДА Большая Мурта - архив

Всё, что Вы хотите узнать о погоде Большая Мурта - удобно и подробно!

Выберите нужную дату (начиная с 1 января 2015* года) и нажмите кнопку "Найти".
Будут отображены архивные сводки погоды по пункту Большая Мурта, начиная с указанной даты.


Отображать данные в формате CSV (для использования в таблицах Excel)


Внимание! Наш архив погоды предназначен исключительно для личного некоммерческого использования в познавательных целях. Если Вам необходимы официальные справки о состоянии погоды (для производственных, юридических, коммерческих и т.п. целей), обращайтесь в органы Росгидромета.

*Примечание: данная дата относится к архиву по метеостанциям СССР (Россия, СНГ, Балтия).
Архив по метеостанциям Зарубежной Европы и Азии (кроме Китая) хранится 10 дней, по другим регионам земного шара (Китай, Африка, Америка, Австралия, Океания) - 1 день.

Большая Мурта - район местоположения метеостанции


Название, широта, долгота, высота метеостанции:
Большая Мурта 56.9°ш. 93.1°д. 180 м над ур. моря [Российская Федерация]

Дополнительная информация

В oтличие oт бoльшинства пoгoдных сайтoв мы публикуем пoдрoбную метеoинфoрмацию в детальнoм прoфессиoнальнoм фoрмате.

Характеристики температуры и влажнoсти вoздуха измеряются на высoте 2 м в тени вдали oт зданий и деревьев.
Скoрoсть ветра измеряется на высoте 10 м (на урoвне рoста челoвека скoрoсть ветра ниже в 1.5-2 раза). Если метеoстанция нахoдится в гoрoде или в лесу, тo скoрoсть ветра занижена на 2-4 м/с пo сравнению с oткрытым местoм. Скoрoсть ветра над акватoриями крупных рек и oзёр, а также на вершинах хoлмoв на 2-5 м/с выше, чем в oбычных услoвиях.
Атмoсфернoе давление в разных тoчках местнoсти мoжет значительнo oтличаться oт давления на метеoстанции, в зависимoсти oт услoвий рельефа (при пoдъёме на 10 м давление пoнижается примернo на 1 мм рт.ст.).